DW4577 Weather Reports


time (UTC)temp
C
wind
direction
speed
KPH
gust
KPH
rain 1hr
cm
rain 24hr
cm
rain mn
cm
humidity
%
barometer
mb
20260507174545 21 360 9.7 16.1 0.00 0.00 0.00 45 1009.4
20260507173038 21 360 6.4 20.9 0.00 0.00 0.00 45 1009.2
20260507171539 21 360 9.7 19.3 0.00 0.00 0.00 46 1009.2
20260507170044 21 360 8.0 17.7 0.00 0.00 0.00 46 1009.2
20260507164535 21 360 9.7 19.3 0.00 0.00 0.00 46 1009.4
20260507163034 21 117 9.7 17.7 0.00 0.00 0.00 47 1009.5
20260507161534 21 112 8.0 19.3 0.00 0.00 0.00 47 1009.4
20260507160035 21 69 9.7 20.9 0.00 0.00 0.00 46 1009.6
20260507154532 21 360 4.8 16.1 0.00 0.00 0.00 46 1009.7
20260507153030 21 360 8.0 20.9 0.00 0.00 0.00 47 1009.5
20260507151530 21 360 6.4 17.7 0.00 0.00 0.00 47 1009.7
20260507150033 21 360 4.8 29.0 0.00 0.00 0.00 48 1009.8
20260507144528 21 360 11.3 24.1 0.00 0.00 0.00 48 1009.8
20260507143031 22 52 14.5 27.4 0.00 0.00 0.00 46 1009.8
20260507141527 22 76 12.9 20.9 0.00 0.00 0.00 46 1009.8
20260507140127 22 140 3.2 12.9 0.00 0.00 0.00 45 1009.8
20260507134524 22 172 4.8 16.1 0.00 0.00 0.00 43 1009.8
20260507133022 23 119 3.2 12.9 0.00 0.00 0.00 42 1010.1
20260507131527 23 103 3.2 12.9 0.00 0.00 0.00 40 1010.2
20260507130020 23 147 3.2 9.7 0.00 0.00 0.00 40 1010.3
20260507124519 23 155 4.8 9.7 0.00 0.03 0.00 41 1010.2
20260507123016 23 112 3.2 11.3 0.00 0.03 0.00 44 1010.3
20260507121516 23 221 3.2 11.3 0.00 0.03 0.00 42 1010.4
20260507120029 23 211 4.8 11.3 0.00 0.03 0.00 43 1010.5
20260507114514 23 155 3.2 11.3 0.00 0.03 0.00 41 1010.5
20260507113013 23 99 3.2 14.5 0.00 0.03 0.00 43 1010.7
20260507111511 23 157 4.8 11.3 0.00 0.03 0.00 41 1010.7
20260507110010 23 212 4.8 12.9 0.00 0.03 0.00 42 1011.0
20260507104511 22 169 1.6 8.0 0.00 0.03 0.00 46 1010.9
20260507103007 22 227 4.8 11.3 0.00 0.03 0.00 48 1011.1
20260507101506 23 263 1.6 9.7 0.00 0.03 0.00 48 1011.3
20260507100002 22 25 6.4 9.7 0.00 0.03 0.00 48 1011.2
20260507094558 21 11 0.0 6.4 0.00 0.03 0.00 52 1011.3
20260507093058 21 36 3.2 9.7 0.00 0.03 0.00 53 1011.5
20260507091557 21 360 4.8 8.0 0.00 0.03 0.00 53 1011.6
20260507090055 20 130 1.6 9.7 0.00 0.03 0.00 56 1011.7
20260507084548 20 99 6.4 12.9 0.00 0.03 0.00 58 1011.7
20260507083045 20 162 1.6 9.7 0.00 0.03 0.00 58 1011.7
20260507081549 20 93 4.8 9.7 0.00 0.03 0.00 58 1011.3
20260507080044 19 12 0.0 4.8 0.00 0.03 0.00 61 1011.3
20260507074553 18 13 1.6 9.7 0.00 0.03 0.00 64 1011.3
20260507073034 17 360 6.4 14.5 0.00 0.03 0.00 64 1011.5
20260507071531 17 360 4.8 14.5 0.00 0.03 0.00 66 1011.8
20260507070029 17 355 3.2 6.4 0.00 0.03 0.00 67 1011.6
20260507064529 16 338 4.8 16.1 0.00 0.03 0.00 68 1011.4
20260507063029 16 320 4.8 14.5 0.00 0.03 0.00 69 1011.4
20260507061524 16 350 3.2 12.9 0.00 0.03 0.00 70 1011.2
20260507060025 15 301 3.2 12.9 0.00 0.03 0.00 71 1011.0
20260507054522 15 294 8.0 19.3 0.00 0.03 0.00 72 1011.0
20260507053019 15 332 9.7 24.1 0.00 0.03 0.00 73 1010.9
20260507051516 15 334 8.0 16.1 0.00 0.03 0.00 73 1011.0
20260507050024 15 17 4.8 12.9 0.00 0.03 0.00 73 1010.7
20260507044509 15 360 3.2 14.5 0.00 0.05 0.00 73 1010.8
20260507043006 15 293 3.2 11.3 0.00 0.05 0.00 74 1011.0
20260507041503 15 303 4.8 17.7 0.00 0.05 0.00 73 1010.9
20260507040005 15 294 4.8 12.9 0.00 0.05 0.00 72 1010.6
20260507034602 15 316 3.2 8.0 0.00 0.05 0.00 72 1010.6
20260507033104 15 291 4.8 12.9 0.00 0.05 0.00 72 1010.9
20260507031607 15 317 6.4 9.7 0.00 0.05 0.00 71 1010.7
20260507030057 15 360 1.6 6.4 0.00 0.05 0.00 70 1010.8
20260507024552 16 345 3.2 8.0 0.00 0.05 0.00 69 1011.0
20260507023059 16 5 3.2 8.0 0.00 0.05 0.00 68 1010.9
20260507021547 16 320 1.6 8.0 0.00 0.05 0.00 69 1010.8
20260507020049 16 349 1.6 8.0 0.00 0.05 0.00 69 1010.9
20260507014551 16 355 1.6 6.4 0.00 0.05 0.00 69 1010.9
20260507013045 16 355 1.6 8.0 0.00 0.05 0.00 69 1011.0
20260507011543 16 5 0.0 12.9 0.00 0.05 0.00 69 1011.0
20260507010042 16 5 3.2 9.7 0.00 0.05 0.00 69 1011.3
20260507004538 16 5 4.8 12.9 0.00 0.05 0.00 69 1011.3
20260507003038 17 346 6.4 12.9 0.00 0.05 0.00 69 1011.4
20260507001537 17 265 0.0 4.8 0.00 0.05 0.00 69 1011.4
20260507000037 17 265 3.2 6.4 0.00 0.05 0.00 68 1011.6
20260506234531 17 266 1.6 6.4 0.00 0.05 0.00 68 1011.8
20260506233033 17 266 1.6 4.8 0.00 0.05 0.00 68 1012.0
20260506231529 17 252 0.0 0.0 0.00 0.05 0.00 67 1012.0
20260506230028 17 252 0.0 0.0 0.00 0.05 0.00 67 1012.1
20260506224527 17 252 0.0 0.0 0.00 0.05 0.00 67 1012.0
20260506223025 17 252 0.0 4.8 0.00 0.05 0.00 67 1011.8
20260506221523 17 131 0.0 3.2 0.00 0.05 0.00 67 1011.8
20260506220024 17 130 0.0 4.8 0.00 0.05 0.00 67 1011.7
20260506214521 17 171 3.2 8.0 0.00 0.05 0.05 67 1011.9
20260506213020 17 159 1.6 9.7 0.00 0.05 0.05 68 1012.0
20260506211521 17 188 1.6 14.5 0.00 0.05 0.05 68 1012.1
20260506210018 17 250 4.8 16.1 0.00 0.05 0.05 67 1012.1
20260506204524 17 219 3.2 14.5 0.00 0.05 0.05 67 1011.9
20260506203019 17 176 3.2 4.8 0.00 0.05 0.05 66 1011.7
20260506201519 17 217 1.6 8.0 0.00 0.05 0.05 66 1011.5
20260506200016 17 286 0.0 9.7 0.00 0.05 0.05 67 1011.4
20260506194518 17 266 3.2 6.4 0.00 0.05 0.05 67 1011.1
20260506193015 17 183 0.0 6.4 0.00 0.05 0.05 66 1011.3
20260506191516 17 157 1.6 9.7 0.00 0.05 0.05 66 1011.4
20260506190014 17 191 3.2 11.3 0.00 0.05 0.05 66 1011.5
20260506184513 17 192 8.0 17.7 0.00 0.05 0.05 65 1011.6
20260506183011 17 221 4.8 16.1 0.00 0.05 0.05 65 1011.7
20260506181511 18 360 3.2 17.7 0.00 0.05 0.05 66 1011.3
20260506180010 18 360 3.2 14.5 0.00 0.05 0.05 67 1011.1